{"data":{"norad_id":68388,"intl_designator":"2026-063J","name":"STARLINK-37203","alt_names":[],"object_type":"PAYLOAD","status":"ACTIVE","operator":null,"country":"US","launch_date":"2026-03-26","launch_site_code":"AFWTR","launch_vehicle":null,"mission":null,"orbit_class":"UNKNOWN","rcs_meters":null,"size_class":null,"mass_kg":null,"dimensions":null,"purposes":["comms"],"wikipedia_slug":null,"has_3d_model":false,"image_url":null,"decayed_at":null,"tle_current":{"epoch":"2026-09-20T02:59:04.557984Z","epoch_age_seconds":80125,"freshness":"FRESH","line1":"1 68388U 26063J   26263.12435831  .00006369  00000+0  19950-3 0  9996","line2":"2 68388  97.2832  44.0304 0001133 104.5176 255.6193 15.33435064 27692","mean_motion":15.33435064,"eccentricity":0.0001133,"inclination_deg":97.2832,"raan_deg":44.0304,"arg_perigee_deg":104.5176,"mean_anomaly_deg":255.6193,"bstar":0.0001995,"rev_number":2769,"period_min":93.906813128671,"perigee_km":464.79734486996,"apogee_km":466.34812949641,"semimajor_km":6843.7097371832,"source":"CELESTRAK","updated_at":"2026-09-20T09:00:43.894271Z"}}}